Regional Weather Roundup
Issued by NWS

Home | Current Version | Previous Version | Text Only | Print | Product List | Glossary On
Versions: 1 2 3 4 5 6 7 8 9 10 11 12 13 14 15 16 17 18 19 20 21 22 23 24 25 26 27 28 29 30 31 32 33 34 35 36 37 38 39 40 41 42 43 44 45 46 47 48 49 50
000
ASUS44 KFWD 062315
RWRTX
NORTH TEXAS HOURLY WEATHER ROUNDUP
NATIONAL WEATHER SERVICE FORT WORTH TX
600 PM CDT FRI MAY 06 2016

NOTE: "FAIR" INDICATES FEW OR NO CLOUDS BELOW 12,000 FEET WITH NO
SIGNIFICANT WEATHER AND/OR OBSTRUCTIONS TO VISIBILITY.

TXZ118-119-070000-
DALLAS/FORT WORTH METROPLEX

CITY           SKY/WX    TMP DP  RH WIND       PRES   REMARKS
DFW AIRPORT    SUNNY     83  49  30 SE9       29.99F
DALLAS LOVE    SUNNY     83  50  31 S9        29.99F
FTW MEACHAM    SUNNY     84  51  31 SE8       29.99F
DAL-EXECUTIVE  SUNNY     81  49  32 SE6       30.00F
FTW-ALLIANCE   SUNNY     81  51  35 SE6       29.99F
FTW-NAS-JRB    SUNNY     82  51  34 S8        29.99F
FTW-SPINKS     SUNNY     84  52  32 SE8       30.02F
ARLINGTON      SUNNY     84  51  31 SE12      30.00F
GRAND PRAIRIE  SUNNY     82  48  30 SE6       30.01F
ADDISON        SUNNY     82  45  26 SE10G16   30.01F
MESQUITE       SUNNY     81  48  32 SE7       30.01F
LANCASTER      SUNNY     82  49  31 SE6       30.02S
$$

TXZ091>094-102>105-117-120-121-131>134-070000-
NORTH CENTRAL TEXAS

CITY           SKY/WX    TMP DP  RH WIND       PRES   REMARKS
SHRMAN/DENISON SUNNY     77  43  29 S6        30.02F
GAINESVILLE    SUNNY     79  53  40 S7        30.03F
BOWIE          SUNNY     80  48  32 SE8       30.01F
BRIDGEPORT     SUNNY     82  53  35 SE8       30.02F
DECATUR        SUNNY     81  47  30 SE7       30.01F
DENTON         SUNNY     82  50  32 SE9       29.99F
MCKINNEY       SUNNY     80  53  39 SE7       30.01F
GREENVILLE     SUNNY     81  45  28 E3        30.02F
ROCKWALL       SUNNY     80  51  37 E10G16    30.00F
TERRELL        SUNNY     81  49  32 VRB5      30.01F
WAXAHACHIE     SUNNY     81  54  39 CALM      30.02F
CLEBURNE       SUNNY     81  54  39 SE9       30.02F
GRANBURY       SUNNY     84  50  30 SE9       30.01F
$$

TXZ083>090-098>101-113>116-127>130-139>142-154-155-070000-
WESTERN NORTH TEXAS

CITY           SKY/WX    TMP DP  RH WIND       PRES   REMARKS
WICHITA FALLS  SUNNY     82  49  31 SE14      29.98F
WF-KICKAPOO    SUNNY     84  48  28 SE15G22   29.99F
VERNON         SUNNY     85  41  21 SE16      29.97F
ABILENE        NOT AVBL
ABILENE-DYESS  SUNNY     83  53  35 E17       29.96F
BRECKENRIDGE   SUNNY     84  46  26 SE13      29.98F
GRAHAM         SUNNY     83  51  32 SE9G16    29.97F
MINERAL WELLS  SUNNY     82  51  34 SE10      29.99F
STEPHENVILLE   SUNNY     82  46  28 SE6       30.04S
COMANCHE       SUNNY     82  51  34 SE9       30.01F
BROWNWOOD      SUNNY     82  46  28 E15       29.99F
COLEMAN        SUNNY     84  48  28 SE14G22   29.99F
$$

TXZ143>147-156>162-174-175-070000-
CENTRAL TEXAS

CITY           SKY/WX    TMP DP  RH WIND       PRES   REMARKS
WACO           SUNNY     83  51  33 SE6       30.00F
WACO-MCGREGOR  SUNNY     83  52  34 SE6       30.00
HILLSBORO      SUNNY     81  51  35 E8        30.01F
CORSICANA      SUNNY     83  51  33 SE5       30.02F
HEARNE         SUNNY     82  53  35 CALM      30.01S
CAMERON        SUNNY     84  51  31 E6        29.99F
TEMPLE         SUNNY     82  51  34 E7        30.01F
KILLEEN        SUNNY     81  49  32 VRB7      30.00F
KILLEEN-SKYLRK SUNNY     83  50  31 SE9       30.01F
FORT HOOD      SUNNY     82  50  32 SE7       29.99F
GATESVILLE     SUNNY     82  48  30 MISG      30.02F
HAMILTON       SUNNY     82  49  31 SE10      30.02F
LAMPASAS       SUNNY     81  52  36 SE6       30.00F
$$

TXZ095>097-106>112-122>126-135>138-148>153-164>167-070000-
EAST TEXAS

CITY           SKY/WX    TMP DP  RH WIND       PRES   REMARKS
PARIS          SUNNY     79  46  31 E6        30.03F
MOUNT PLEASANT SUNNY     79  47  32 CALM      30.04S
GILMER         SUNNY     79  49  34 CALM      30.02F
MINEOLA        SUNNY     81  48  32 CALM      30.03S
TYLER          SUNNY     83  46  27 NE7       30.01F
LONGVIEW       SUNNY     79  50  36 E6        30.01F
MARSHALL       SUNNY     76  44  31 E3        30.04F
ATHENS         SUNNY     79  50  36 SE6       30.00F
PALESTINE      SUNNY     82  49  32 NE3       30.02F
JACKSONVILLE   SUNNY     80  48  32 CALM      30.04F
HENDERSON      SUNNY     80  47  31 CALM      30.03S
CENTER         FAIR      81  47  30 N3        30.01F
NACOGDOCHES    SUNNY     82  48  30 N3        30.01S
LUFKIN         SUNNY     81  48  31 CALM      30.00F
$$

SUPPLEMENTAL OBSERVATIONS (CENTRAL)

CITY           SKY/WX    TMP DP  RH WIND       PRES   REMARKS
LAKE TEXOMA      N/A     79  48  34 E5          N/A
PAT MAYSE LAKE   N/A     79  46  31 SE2         N/A
ATHENS           N/A     82  48  30 SE5         N/A
LAKE LIMESTONE   N/A     84  52  32 SE2         N/A
MCGREGOR         N/A     82  50  32 SE6         N/A
TEMPLE           N/A     84  46  26 E6          N/A
$$

SUPPLEMENTAL OBSERVATIONS (WEST)

CITY           SKY/WX    TMP DP  RH WIND       PRES   REMARKS
MILLERS CREEK    N/A     84  52  32 S15         N/A
POSSUM KINGDOM   N/A     84  48  28 SE10        N/A
GRANBURY         N/A     84  48  28 SE10        N/A
COMANCHE         N/A     81  46  30 SE13        N/A
HAMBY            N/A     82  50  32 SE10G21     N/A
IVIE RESERVOIR   N/A     86  48  26 SE14G22     N/A
COLORADO BEND    N/A     82  45  26 S10G18      N/A
$$

SUPPLEMENTAL OBSERVATIONS (EAST)

CITY           SKY/WX    TMP DP  RH WIND       PRES   REMARKS
CLARKSVILLE      N/A     79  48  34 SE3         N/A
TEXARKANA        N/A     81  46  30 E1          N/A
LINDEN           N/A     81  46  30 E2          N/A
GILMER           N/A     81  48  32 E2          N/A
HENDERSON        N/A     82  50  32 N5          N/A
LUFKIN           N/A     82  50  32 MISG        N/A
S SABINE NF      N/A     81  50  34 N1          N/A
$$

SUPPLEMENTAL OBSERVATIONS ARE A COLLECTION OF AUTOMATED INSTRUMENTS
THAT ARE MAINTAINED BY A VARIETY OF FEDERAL AND STATE AGENCIES.
CERTAIN ELEMENTS...SUCH AS HUMIDITY VALUES AND SUSTAINED WIND
SPEEDS...MAY BE APPROXIMATED.




USA.gov is the U.S. government's official web portal to all federal, state and local government web resources and services.